Regional Weather Roundup
Issued by NWS

Home | Current Version | Previous Version | Graphics & Text | Print | Product List | Glossary On
Versions: 1 2 3 4 5 6 7 8 9 10 11 12 13 14 15 16 17 18 19 20 21 22 23 24 25 26 27 28 29 30 31 32 33 34 35 36 37 38 39 40 41 42 43 44 45 46 47 48 49 50
000
ASUS43 KLOT 250808
RWRIL

ILLINOIS REGIONAL WEATHER ROUNDUP
NATIONAL WEATHER SERVICE CHICAGO/ROMEOVILLE IL
300 AM CDT MON JUL 25 2016

NOTE: "FAIR" INDICATES FEW OR NO CLOUDS BELOW 12,000 FEET WITH NO
SIGNIFICANT WEATHER AND/OR OBSTRUCTIONS TO VISIBILITY.

* THESE STATIONS ARE NOT UNDER NWS QUALITY CONTROL. THEY ALSO MAY NOT
  REPORT WEATHER SUCH AS PRECIPITATION OR FOG.

ILZ001-002-007-009-015-016-024-250900-
NORTHWEST ILLINOIS

CITY           SKY/WX    TMP DP  RH WIND       PRES   REMARKS
MOLINE         CLOUDY    75  66  73 N3        29.99S
STERLING*      CLOUDY    71  68  90 N3        30.00R
SAVANNA*       CLOUDY    73  67  82 NW7       29.99S
$$

ILZ003-004-008-010-011-017-018-250900-
NORTH CENTRAL ILLINOIS

CITY           SKY/WX    TMP DP  RH WIND       PRES   REMARKS
ROCKFORD       CLOUDY    75  66  73 CALM      29.99S
FREEPORT*      CLOUDY    71  66  86 NW5       30.01S
ROCHELLE*      MOCLDY    71  69  96 CALM      29.99S
DE KALB*       MOCLDY    73  69  88 W3        29.99S
$$

ILZ005-006-012>014-019>023-250900-
NORTHEAST ILLINOIS

CITY           SKY/WX    TMP DP  RH WIND       PRES   REMARKS
CHICAGO-OHARE  CLOUDY    74  67  78 SW9       29.97S
CHICAGO-MIDWAY CLOUDY    75  65  70 SW9       29.96F
AURORA         MOCLDY    73  70  90 S7        29.98S
LANSING*       CLOUDY    72  65  80 W9        29.96F
JOLIET*        CLOUDY    74  70  86 SW5       29.97F
WAUKEGAN       CLOUDY    77  68  73 W3        29.94S
DUPAGE AIRPORT MOCLDY    72  67  84 S7        29.97S
KANKAKEE*      CLOUDY    71  67  88 W7        30.00R
WHEELING       CLOUDY    75  67  76 S8        29.98R
MORRIS*        CLOUDY    73  70  90 S8        29.96F
ROMEOVILLE*    CLOUDY    73  65  77 SW5       29.97F
NORTHERLY ISL    N/A     75  63  66 SW12        N/A
$$

LMZ740>746-250900-
SOUTHERN LAKE MICHIGAN

STATION/POSITION SKY/WX   TEMP    WIND        PRES    VSBY  WAVE
                          AIR SEA DIR/SP/G                  HT/PER
                          (F)     (DEG/KT/KT) (MB)    (MI)  (FT/S)
SOUTHERN BUOY              74 72  230/ 10/ 12 1012.6S         2/ 5
WILMETTE HARBOR            69 64  240/ 10/ 14   N/A           1/ 2
HARRISON CRIB              76     230/ 19/ 20   N/A
BURNHAM HARBOR             75     240/  5/ 13   N/A
CALUMET HARBOR             73     230/  8/ 10 1014.4R
BURNS HARBOR               74     180/  5/ 20 1014.6S
MICHIGAN CITY              73     210/ 10/ 12   N/A
MICHIGAN CITY 6N           74 74  280/ 14/ 19   N/A           2/ 4
ST. JOSEPH                 74 73  270/ 16/ 21 1013.2F         4/ 4
$$

ILZ025>027-034>036-040-047-049-050-058-095>099-250900-
WEST-CENTRAL ILLINOIS

CITY           SKY/WX    TMP DP  RH WIND       PRES   REMARKS
QUINCY         CLOUDY    76  72  87 NE10      29.99S
GALESBURG*     PTCLDY    71  68  90 NW3       30.01R
MACOMB*        CLOUDY    73  71  93 CALM      30.03R
JACKSONVILLE*  CLOUDY    74  70  88 S3        30.01R
PITTSFIELD*    CLOUDY    75  71  87 CALM      30.01R
$$

ILZ028>032-037-038-041>044-048-051>054-059>061-250900-
CENTRAL ILLINOIS

CITY           SKY/WX    TMP DP  RH WIND       PRES   REMARKS
PONTIAC        CLOUDY    73  71  94 W5        30.00S
BLOOMINGTON    CLOUDY    71  69  93 S10       29.97F
DECATUR        RAIN      71  69  93 S9        30.01F
PEORIA         CLOUDY    75  72  90 S7        30.01R
LACON*         CLOUDY    76  74  96 S9        29.99R
LINCOLN*       CLOUDY    73  72  98 E3        29.99S
SPRINGFIELD    CLOUDY    74  71  91 SE10      29.99S
TAYLORVILLE    RAIN      70  68  93 W9        30.03F
$$

ILZ033-039-045-046-055>057-062-063-250900-
EAST-CENTRAL ILLINOIS

CITY           SKY/WX    TMP DP  RH WIND       PRES   REMARKS
CHAMPAIGN      LGT RAIN  71  68  90 S8        30.00F
RANTOUL*       LGT RAIN  72  70  94 W6        29.99F
MATTOON        LGT RAIN  71  67  87 NE5       30.00F
PARIS*         CLOUDY    70  69  96 CALM      30.01F
$$

ILZ079-100>102-250900-
SOUTHWEST ILLINOIS

CITY           SKY/WX    TMP DP  RH WIND       PRES   REMARKS
ALTON          CLOUDY    73  72  97 SE9       29.99R THUNDER
BELLEVILLE     CLOUDY    77  75  91 CALM      30.00R THUNDER
CAHOKIA*       TSTM      74  70  87 S6        29.99F
SPARTA*        CLOUDY    80  77  91 NE3       30.01R HX  85
$$

ILZ064>066-069>071-074>076-080>082-084>086-088>090-092>094-250900-
SOUTH-CENTRAL ILLINOIS

CITY           SKY/WX    TMP DP  RH WIND       PRES   REMARKS
CARBONDALE     CLEAR     77  75  93 CALM      29.98R
CAIRO*         CLEAR     76  76  99 CALM      29.97R
EFFINGHAM*     CLOUDY    75  73  94 CALM      30.01F
MARION         CLEAR     79  77  94 CALM      29.99R HX  83
MT. VERNON     CLOUDY    79  72  78 MISG      30.00R HX  82
CENTRALIA*     DRIZZLE   78  74  87 NE7       30.01R HX  81
SALEM*         CLOUDY    76  71  84 E7        30.01S
METROPOLIS*      N/A     76  76  98 CALM      29.98S FOG
$$

ILZ067-068-072-073-078-083-087-091-250900-
SOUTHEAST ILLINOIS

CITY           SKY/WX    TMP DP  RH WIND       PRES   REMARKS
LAWRENCEVILLE  CLOUDY    74  69  85 N7        30.01F
FLORA*         CLOUDY    76  70  81 N8        30.03R
FAIRFIELD*     CLOUDY    76  71  83 N6        30.01R
HARRISBURG*    PTCLDY    77  77  99 E3        29.98S FOG
ROBINSON*      CLOUDY    70  69  95 CALM      30.02F
CARMI*         PTCLDY    76  76 100 N6        29.99R FOG
$$

ABBREVIATIONS USED IN REMARKS
   TC - TEMPERATURE IN CELSIUS
  WCI - WIND CHILL INDEX
   HX - HEAT INDEX
  VSB - VISIBILITY
$$




USA.gov is the U.S. government's official web portal to all federal, state and local government web resources and services.